Content
SEND FEEDBACK

Daily
Averages
Monthly
Summary
United States of America

HARRISONBURG, VIRGINIA


Home > North America > United States > Virginia
Elevation: 1186 feet     Latitude: 38 16N     Longitude: 078 54W

WEATHER
 
SELECT A DAY
Number of Records: 467,913;   Date Range: 1/1/95 - 12/17/14
 
SHARE

PRINT THIS DATA

[ ← Previous Day ]
WEATHER ALMANAC - JULY 20, 2014
[ Next Day → ]
[ °C ]   °F
Weather ElementAverageHighLow
Temperature68 °F76.5 °F (5:15 pm)59.5 °F (3:15 am)
Dewpoint59.5 °F63.5 °F (9:35 pm)55.4 °F (5:15 am)
Humidity75.2 %90 % (12:35 am)55 % (1:35 pm)
Barometer30.16 in30.19 in (12:35 am)30.12 in (4:55 pm)
Wind Speed2.1 mph8.1 mph (1:35 pm)
Weather ElementAverage
Visibility9.8 mi
Wind DirectionENE (61.9 °)

Weather ElementTotal
Precipitation---
Cooling Degree Days3 (Base 65)
Growing Degree Days18 (Base 50)
Averaged from 70 records on July 20, 2014
WEATHER CONDITIONS BREAKOUT
WIND DIRECTION BREAKOUT
WEATHER BY HOUR - JULY 20, 2014
[ °C ]   °F
Local TimeTemperatureDewpointHumidityBarometerVisibilityWind DirectionWind SpeedGust SpeedPrecipitationEventsConditions
12:35 AM63.5 °F60.4 °F90 %30.19 in7.0 miNE (50°)3.5 mphOvercast
12:55 AM62.8 °F59.7 °F90 %30.18 in7.0 miNE (50°)4.6 mphDrizzle
1:15 AM62.6 °F58.3 °F86 %30.18 in10.0 miCalmOvercast
1:35 AM62.1 °F58.3 °F87 %30.18 in10.0 miNE (40°)4.6 mphOvercast
1:55 AM61.7 °F57.9 °F87 %30.17 in10.0 miNorth (360°)3.5 mphOvercast
2:15 AM60.8 °F57.2 °F88 %30.17 in10.0 miNE (40°)3.5 mphOvercast
2:35 AM60.1 °F56.7 °F88 %30.16 in10.0 miNE (50°)4.6 mphOvercast
2:55 AM59.9 °F56.3 °F88 %30.15 in10.0 miEast (80°)3.5 mphOvercast
3:15 AM59.5 °F56.1 °F88 %30.14 in10.0 miCalmOvercast
3:35 AM59.5 °F56.3 °F89 %30.14 in10.0 miCalmOvercast
3:55 AM59.7 °F55.6 °F86 %30.14 in10.0 miCalmOvercast
4:15 AM59.5 °F55.8 °F87 %30.14 in10.0 miCalmOvercast
4:35 AM59.9 °F55.8 °F86 %30.14 in10.0 miCalmOvercast
4:55 AM59.9 °F55.9 °F87 %30.14 in10.0 miCalmOvercast
5:15 AM59.9 °F55.4 °F85 %30.15 in10.0 miCalmOvercast
5:35 AM59.9 °F56.7 °F89 %30.16 in7.0 miCalmOvercast
5:55 AM59.9 °F56.7 °F89 %30.16 in10.0 miCalmOvercast
6:15 AM59.5 °F56.5 °F90 %30.16 in10.0 miCalmOvercast
6:35 AM59.9 °F56.3 °F88 %30.16 in10.0 miCalmOvercast
6:55 AM59.9 °F56.5 °F88 %30.17 in7.0 miCalmOvercast
7:15 AM60.1 °F56.8 °F89 %30.17 in10.0 miCalmOvercast
7:35 AM60.6 °F56.8 °F87 %30.17 in10.0 miCalmOvercast
7:55 AM61.0 °F57.2 °F87 %30.18 in10.0 miCalmOvercast
8:15 AM61.7 °F58.1 °F88 %30.18 in10.0 miCalmOvercast
8:35 AM61.9 °F57.9 °F87 %30.18 in10.0 miCalmOvercast
8:55 AM63.0 °F58.6 °F86 %30.18 in10.0 miCalmOvercast
9:15 AM63.5 °F58.1 °F83 %30.19 in10.0 miCalmOvercast
9:35 AM64.0 °F57.9 °F80 %30.19 in10.0 miCalmOvercast
9:55 AM65.3 °F58.3 °F78 %30.19 in10.0 miCalmOvercast
10:15 AM66.4 °F58.1 °F75 %30.19 in10.0 miCalmOvercast
10:35 AM67.3 °F58.5 °F73 %30.19 in10.0 miCalmOvercast
10:55 AM68.7 °F59.7 °F73 %30.19 in10.0 miCalmOvercast
11:15 AM69.8 °F59.9 °F71 %30.19 in10.0 miCalmOvercast
11:35 AM70.9 °F60.1 °F69 %30.18 in10.0 miCalmOvercast
11:55 AM72.3 °F61.0 °F67 %30.18 in10.0 miCalmOvercast
12:15 PM71.8 °F60.3 °F67 %30.17 in10.0 miCalmMostly Cloudy
12:35 PM74.5 °F60.4 °F61 %30.17 in10.0 miSSE (150°)5.8 mphOvercast
1:15 PM74.8 °F59.0 °F58 %30.15 in10.0 miSSW (200°)4.6 mphOvercast
1:35 PM75.7 °F58.6 °F55 %30.15 in10.0 miSW (220°)8.1 mphOvercast
1:55 PM74.5 °F58.6 °F58 %30.14 in10.0 miSouth (170°)5.8 mphOvercast
2:15 PM74.8 °F59.2 °F58 %30.14 in10.0 miSouth (170°)8.1 mphOvercast
2:35 PM75.4 °F59.5 °F58 %30.14 in10.0 miSSE (160°)6.9 mphOvercast
2:55 PM74.5 °F59.7 °F60 %30.15 in10.0 miSouth (170°)6.9 mphOvercast
3:15 PM74.3 °F60.1 °F61 %30.15 in10.0 miSouth (170°)6.9 mphOvercast
3:35 PM74.7 °F60.8 °F62 %30.14 in10.0 miSouth (170°)4.6 mphOvercast
3:55 PM74.5 °F60.4 °F61 %30.14 in10.0 miSouth (180°)4.6 mphOvercast
4:15 PM74.5 °F60.4 °F61 %30.13 in10.0 miSouth (190°)5.8 mphOvercast
4:35 PM75.9 °F61.3 °F60 %30.13 in10.0 miSSE (160°)8.1 mphOvercast
4:55 PM75.4 °F61.2 °F61 %30.12 in10.0 miSSE (160°)6.9 mphOvercast
5:15 PM76.5 °F61.5 °F60 %30.12 in10.0 miSouth (170°)6.9 mphOvercast
5:35 PM75.7 °F60.4 °F59 %30.12 in10.0 miSouth (190°)4.6 mphMostly Cloudy
5:55 PM75.7 °F60.6 °F59 %30.12 in10.0 miSouth (190°)4.6 mphMostly Cloudy
6:15 PM75.2 °F60.8 °F61 %30.13 in10.0 miSSE (160°)4.6 mphOvercast
6:35 PM75.0 °F60.8 °F61 %30.13 in10.0 miSSW (200°)4.6 mphOvercast
6:55 PM74.7 °F60.8 °F62 %30.14 in10.0 miSouth (180°)3.5 mphOvercast
7:15 PM74.3 °F61.3 °F64 %30.13 in10.0 miSSE (150°)3.5 mphOvercast
7:35 PM73.6 °F62.1 °F67 %30.13 in10.0 miSSE (150°)4.6 mphOvercast
7:55 PM73.0 °F62.2 °F69 %30.14 in10.0 miCalmOvercast
8:15 PM72.7 °F62.8 °F71 %30.14 in10.0 miCalmOvercast
8:35 PM71.8 °F63.1 °F74 %30.13 in10.0 miCalmOvercast
8:55 PM72.0 °F63.1 °F74 %30.14 in10.0 miCalmOvercast
9:15 PM71.8 °F63.0 °F74 %30.15 in10.0 miCalmOvercast
9:35 PM71.6 °F63.5 °F76 %30.16 in10.0 miCalmOvercast
9:55 PM70.7 °F63.5 °F78 %30.17 in10.0 miCalmOvercast
10:15 PM70.7 °F63.3 °F77 %30.18 in10.0 miCalmOvercast
10:35 PM70.9 °F63.3 °F77 %30.17 in10.0 miCalmOvercast
10:55 PM70.9 °F63.1 °F76 %30.17 in10.0 miCalmOvercast
11:15 PM70.9 °F62.8 °F75 %30.17 in10.0 miCalmOvercast
11:35 PM69.8 °F63.5 °F80 %30.17 in10.0 miCalmOvercast
11:55 PM70.2 °F63.5 °F79 %30.17 in10.0 miCalmOvercast
Hourly data recorded from KSHD, located miles away from Harrisonburg, Virginia







STORIES FROM OUR PARTNERS